Voltar ao catálogo

GONETS M 11

M21

AtivoComunicaçõesPO
NORAD 40552·PAYLOAD·🇷🇺 Russia

Lançado Mar 31, 2015 de Plesetsk Cosmodrome

Loading…

Próximas Passagens (próximas 24 horas)

TLE

AtualizadoSource: Space-Track

Época: Sep 14, 2026, 14:27 UTC

1 40552U 15020A   26257.60215417 -.00000004  00000-0 -10218-3 0  9993
2 40552  82.4917 335.2859 0016840 164.0824 196.0788 12.42880818519846

Acompanhe GONETS M 11 em tempo real com AllMySat

Download on the App Store